AFR659 LGAV-LFRS

Flight info

Callsign AFR659
Flight time N/A
Altitude FL340
Route KOR1E KOR UL53 IXONI YNN UL611 TUMBO OVVER RODON VAKSU EDUGI BAKEP LUTOR LOGDI RONOP GIGUS BALSI GIPNO RUSIT TIS LMG MANAK MANA1C
Aircraft A321/M-SDE3FGHIRWY/LB1

Departure

Time 2026-05-04 14:58
Airport Athens Eleftherios Venizelos International Airport (LGAV)

Arrival

Time N/A
Airport Nantes Atlantique Airport (LFRS)
Time Latitude Longitude Altitude Speed Heading
2026-05-04 14:37 37.93743 23.94982 307 ft 0 kts 308°
2026-05-04 14:47 37.93740 23.94987 308 ft 2 kts 311°
2026-05-04 14:48 37.93729 23.94999 308 ft 2 kts 320°
2026-05-04 14:48 37.93717 23.95010 306 ft 2 kts 333°
2026-05-04 14:48 37.93703 23.95018 305 ft 2 kts 343°
2026-05-04 14:48 37.93689 23.95021 305 ft 2 kts 354°
2026-05-04 14:49 37.93676 23.95022 305 ft 2 kts
2026-05-04 14:49 37.93661 23.95019 305 ft 2 kts 15°
2026-05-04 14:49 37.93647 23.95013 306 ft 2 kts 26°
2026-05-04 14:49 37.93636 23.95005 307 ft 2 kts 36°
2026-05-04 14:50 37.93627 23.94996 307 ft 0 kts 39°
2026-05-04 14:50 37.93637 23.95006 306 ft 6 kts 37°
2026-05-04 14:50 37.93659 23.95027 304 ft 1 kts 36°
2026-05-04 14:50 37.93659 23.95028 304 ft 0 kts 36°
2026-05-04 14:52 37.93665 23.95032 303 ft 1 kts 33°
2026-05-04 14:52 37.93677 23.95041 303 ft 3 kts 29°
2026-05-04 14:52 37.93696 23.95061 302 ft 5 kts 58°
2026-05-04 14:52 37.93704 23.95110 301 ft 7 kts 107°
2026-05-04 14:53 37.93677 23.95178 300 ft 10 kts 120°
2026-05-04 14:53 37.93611 23.95228 295 ft 14 kts 192°
2026-05-04 14:53 37.93531 23.95168 297 ft 13 kts 218°
2026-05-04 14:53 37.93461 23.95100 297 ft 13 kts 217°
2026-05-04 14:54 37.93389 23.95030 298 ft 13 kts 217°
2026-05-04 14:54 37.93325 23.94971 301 ft 11 kts 216°
2026-05-04 14:54 37.93260 23.94911 299 ft 13 kts 216°
2026-05-04 14:54 37.93189 23.94840 298 ft 14 kts 217°
2026-05-04 14:55 37.93105 23.94762 296 ft 16 kts 216°
2026-05-04 14:55 37.93014 23.94675 294 ft 17 kts 218°
2026-05-04 14:55 37.92919 23.94585 292 ft 18 kts 217°
2026-05-04 14:55 37.92822 23.94491 293 ft 17 kts 218°
2026-05-04 14:56 37.92722 23.94398 291 ft 19 kts 216°
2026-05-04 14:56 37.92625 23.94304 291 ft 15 kts 216°
2026-05-04 14:56 37.92563 23.94296 291 ft 9 kts 152°
2026-05-04 14:56 37.92521 23.94352 291 ft 10 kts 125°
2026-05-04 14:57 37.92485 23.94422 291 ft 9 kts 94°
2026-05-04 14:57 37.92534 23.94495 291 ft 19 kts 37°
2026-05-04 14:57 37.92821 23.94768 289 ft 87 kts 37°
2026-05-04 14:57 37.93452 23.95376 288 ft 144 kts 35°
2026-05-04 14:58 37.94376 23.96258 484 ft 175 kts 36°
2026-05-04 14:58 37.95298 23.97184 1098 ft 174 kts 37°
2026-05-04 14:58 37.96256 23.98109 1730 ft 177 kts 35°
2026-05-04 14:58 37.97240 23.99035 2347 ft 179 kts 35°
2026-05-04 14:59 37.98211 23.99950 2808 ft 178 kts 34°
2026-05-04 14:59 37.99206 24.00892 3150 ft 182 kts 34°
2026-05-04 14:59 38.01342 24.02933 3646 ft 205 kts 34°
2026-05-04 15:00 38.02511 24.04055 3896 ft 218 kts 34°
2026-05-04 15:00 38.03764 24.05259 4092 ft 235 kts 35°
2026-05-04 15:00 38.05114 24.06501 4411 ft 247 kts 26°
2026-05-04 15:01 38.08510 24.06761 5313 ft 254 kts 347°
2026-05-04 15:01 38.10232 24.06275 5922 ft 256 kts 345°
2026-05-04 15:01 38.11980 24.05754 6548 ft 258 kts 345°
2026-05-04 15:01 38.13711 24.05231 7202 ft 259 kts 345°
2026-05-04 15:02 38.15451 24.04693 7869 ft 259 kts 345°
2026-05-04 15:02 38.17196 24.04137 8502 ft 260 kts 345°
2026-05-04 15:02 38.18935 24.03569 9098 ft 262 kts 345°
2026-05-04 15:02 38.20695 24.02984 9701 ft 264 kts 345°
2026-05-04 15:03 38.22471 24.02378 10285 ft 266 kts 345°
2026-05-04 15:03 38.24263 24.01614 10558 ft 280 kts 332°
2026-05-04 15:03 38.25707 23.99871 10795 ft 298 kts 308°
2026-05-04 15:03 38.26866 23.97625 11064 ft 312 kts 306°
2026-05-04 15:04 38.28046 23.95270 11352 ft 323 kts 306°
2026-05-04 15:04 38.29278 23.92856 11807 ft 328 kts 307°
2026-05-04 15:04 38.30533 23.90446 12324 ft 331 kts 307°
2026-05-04 15:04 38.31815 23.88018 12808 ft 334 kts 307°
2026-05-04 15:05 38.33132 23.85546 13284 ft 338 kts 308°
2026-05-04 15:05 38.34452 23.83079 13766 ft 341 kts 308°
2026-05-04 15:05 38.35789 23.80591 14250 ft 344 kts 308°
2026-05-04 15:05 38.37149 23.78067 14639 ft 350 kts 308°
2026-05-04 15:06 38.38536 23.75493 14928 ft 358 kts 308°
2026-05-04 15:06 38.39950 23.72868 15350 ft 361 kts 308°
2026-05-04 15:06 38.41367 23.70234 15807 ft 364 kts 308°
2026-05-04 15:07 38.44250 23.64869 16677 ft 369 kts 308°
2026-05-04 15:07 38.45692 23.62182 17100 ft 371 kts 308°
2026-05-04 15:07 38.47286 23.59618 17499 ft 370 kts 320°
2026-05-04 15:07 38.49414 23.57827 17850 ft 368 kts 340°
2026-05-04 15:08 38.51872 23.57089 18236 ft 366 kts 358°
2026-05-04 15:08 38.54424 23.57123 18621 ft 368 kts
2026-05-04 15:08 38.57007 23.57314 18958 ft 372 kts
2026-05-04 15:08 38.59569 23.56954 19242 ft 379 kts 343°
2026-05-04 15:09 38.61855 23.55262 19589 ft 387 kts 321°
2026-05-04 15:09 38.63642 23.52703 20010 ft 390 kts 312°
2026-05-04 15:09 38.65363 23.50029 20383 ft 392 kts 313°
2026-05-04 15:10 38.68883 23.44698 21109 ft 395 kts 313°
2026-05-04 15:10 38.70685 23.42014 21496 ft 396 kts 314°
2026-05-04 15:10 38.74297 23.36674 22143 ft 401 kts 314°
2026-05-04 15:11 38.76130 23.33970 22482 ft 403 kts 313°
2026-05-04 15:11 38.77960 23.31272 22824 ft 405 kts 313°
2026-05-04 15:11 38.79802 23.28557 23147 ft 406 kts 313°
2026-05-04 15:11 38.81656 23.25827 23480 ft 408 kts 313°
2026-05-04 15:12 38.83522 23.23078 23804 ft 409 kts 313°
2026-05-04 15:12 38.85386 23.20330 24123 ft 411 kts 313°
2026-05-04 15:12 38.87254 23.17567 24457 ft 412 kts 313°
2026-05-04 15:12 38.89119 23.14808 24793 ft 412 kts 313°
2026-05-04 15:13 38.90992 23.12035 25149 ft 412 kts 314°
2026-05-04 15:13 38.92854 23.09275 25476 ft 412 kts 313°
2026-05-04 15:13 38.94725 23.06508 25771 ft 413 kts 313°
2026-05-04 15:13 38.96618 23.03702 26052 ft 414 kts 313°
2026-05-04 15:14 38.98489 23.00924 26355 ft 414 kts 313°
2026-05-04 15:14 39.00361 22.98140 26667 ft 414 kts 314°
2026-05-04 15:14 39.02240 22.95344 26975 ft 414 kts 314°
2026-05-04 15:14 39.04100 22.92575 27273 ft 414 kts 314°
2026-05-04 15:15 39.05974 22.89780 27547 ft 414 kts 314°
2026-05-04 15:15 39.07847 22.86986 27824 ft 414 kts 314°
2026-05-04 15:15 39.09731 22.84176 28051 ft 415 kts 314°
2026-05-04 15:16 39.13492 22.78557 28637 ft 414 kts 314°
2026-05-04 15:16 39.15353 22.75773 28975 ft 412 kts 314°
2026-05-04 15:16 39.19065 22.70208 29546 ft 411 kts 315°
2026-05-04 15:17 39.20914 22.67437 29786 ft 411 kts 315°
2026-05-04 15:17 39.24636 22.61844 30107 ft 412 kts 315°
2026-05-04 15:17 39.26494 22.59050 30110 ft 411 kts 315°
2026-05-04 15:18 39.30190 22.53481 30119 ft 412 kts 315°
2026-05-04 15:19 39.35772 22.45055 30111 ft 412 kts 315°
2026-05-04 15:19 39.41332 22.36641 30106 ft 411 kts 315°
2026-05-04 15:20 39.45021 22.31044 30103 ft 409 kts 314°
2026-05-04 15:20 39.48703 22.25446 30102 ft 407 kts 314°
2026-05-04 15:21 39.52347 22.19897 30108 ft 406 kts 314°
2026-05-04 15:22 39.57809 22.11564 30113 ft 404 kts 314°
2026-05-04 15:22 39.63240 22.03251 30101 ft 403 kts 314°
2026-05-04 15:23 39.66839 21.97731 30106 ft 401 kts 314°
2026-05-04 15:23 39.70433 21.92226 30114 ft 401 kts 315°
2026-05-04 15:24 39.77624 21.81162 30120 ft 402 kts 314°
2026-05-04 15:25 39.81201 21.75630 30122 ft 401 kts 314°
2026-05-04 15:26 39.86570 21.67301 30124 ft 400 kts 314°
2026-05-04 15:26 39.91919 21.58986 30127 ft 400 kts 314°
2026-05-04 15:27 39.97248 21.50661 30132 ft 400 kts 313°
2026-05-04 15:28 40.02598 21.42304 30136 ft 401 kts 314°
2026-05-04 15:29 40.07923 21.33975 30138 ft 400 kts 313°
2026-05-04 15:30 40.20345 21.14458 30143 ft 401 kts 313°
2026-05-04 15:31 40.25674 21.06048 30144 ft 400 kts 313°
2026-05-04 15:32 40.34503 20.92066 30151 ft 400 kts 313°
2026-05-04 15:34 40.43334 20.78017 30153 ft 401 kts 313°